This demonstration page uses our WeatherBlox Daily Observations layout. Learn more.

Left ArrowRight Arrow

Hourly Observations for May 11, 2018

Temp ( °F °C ) Dew Point ( °F °C ) Humidity (%) Winds ( mph kmh ) Pressure ( in mb ) Visibility ( mi km ) Precip ( " mm )
12:03 am 00:03 Cloudy with Haze 64 18 48 9 56 56 undefined N/A N/A 2 2 0.00 0.00
12:21 am 00:21 Cloudy with Nearby Thunderstorms 54 12 46 8 77 77 NNW 38 61 29.85 1011 2 3 0.00 0.00
12:30 am 00:30 Cloudy with Thunderstorms 52 11 48 9 88 88 N 44 70 29.85 1011 5 8 0.00 0.00
12:38 am 00:38 Cloudy with Thunderstorms 48 9 48 9 100 100 N 40 65 29.88 1012 3 4 0.00 0.00
12:41 am 00:41 Very Windy with Storms Likely 50 10 48 9 94 94 N 38 61 29.88 1012 4 6 0.00 0.00
12:56 am 00:56 Windy with Storms Likely 52 11.1 48 8.9 86 86 NNE 35 56 29.83 1010 10 16 0.00 0.00
1:25 am 01:25 Cloudy with Strong Thunderstorms 52 11 50 10 94 94 ENE 32 52 29.77 1008 3 5 0.00 0.00
1:28 am 01:28 Cloudy with Strong Thunderstorms 52 11 50 10 94 94 E 31 50 29.77 1008 3 4 0.66 16.76
1:36 am 01:36 Mostly Cloudy with Thunderstorms 52 11 52 11 100 100 E 30 48 29.77 1008 6 10 0.69 17.53
1:48 am 01:48 Windy with Storms Likely 52 11 50 10 94 94 E 29 46 29.77 1008 10 16 0.69 17.53
1:56 am 01:56 Mostly Clear with Nearby Thunderstorms 53 11.7 51 10.6 93 93 E 23 37 29.72 1007 10 16 0.69 17.53
2:05 am 02:05 Mostly Cloudy with Thunderstorms 54 12 52 11 94 94 ESE 16 26 29.80 1009 10 16 0.00 0.00
2:56 am 02:56 Cloudy with Strong Thunderstorms 53 11.7 51 10.6 93 93 ENE 18 30 29.77 1008 3 5 0.53 13.46
3:04 am 03:04 Cloudy with Heavy Rain 52 11 50 10 94 94 E 21 33 29.80 1009 3 5 0.27 6.86
3:08 am 03:08 Cloudy with Strong Thunderstorms 52 11 50 10 94 94 E 23 37 29.77 1008 3 4 0.31 7.87
3:15 am 03:15 Windy with Storms Likely 52 11 50 10 94 94 ENE 31 50 29.74 1007 5 8 0.00 0.00
3:23 am 03:23 Windy with Storms Likely 52 11 48 9 88 88 E 29 46 29.74 1007 10 16 0.00 0.00
3:43 am 03:43 Cloudy 52 11 48 9 88 88 ENE 24 39 29.77 1008 10 16 0.00 0.00
3:56 am 03:56 Cloudy 51 10.6 49 9.4 92 92 ENE 25 41 29.71 1006 10 16 0.32 8.13
4:34 am 04:34 Cloudy 50 10 48 9 94 94 E 22 35 29.74 1007 10 16 0.00 0.00
4:43 am 04:43 Cloudy 48 9 48 9 100 100 E 23 37 29.77 1008 9 14 0.00 0.00
4:56 am 04:56 Cloudy 49 9.4 48 8.9 97 97 E 22 35 29.68 1005 9 14 0.00 0.00
5:56 am 05:56 Cloudy 49 9.4 48 8.9 97 97 E 23 37 29.68 1005 8 13 0.00 0.00
6:25 am 06:25 Cloudy with Mist and Fog 48 9 46 8 94 94 E 15 24 29.74 1007 6 10 0.00 0.00
6:56 am 06:56 Cloudy with Mist and Fog 49 9.4 48 8.9 97 97 E 14 22 29.70 1006 4 6 0.00 0.00
7:52 am 07:52 Cloudy with Mist and Fog 48 9 48 9 100 100 NE 15 24 29.80 1009 2 3 0.00 0.00
7:56 am 07:56 Cloudy with Mist and Fog 49 9.4 48 8.9 97 97 NNE 16 26 29.74 1007 3 4 0.00 0.00
8:05 am 08:05 Cloudy with Mist and Fog 48 9 48 9 100 100 NNE 15 24 29.83 1010 3 5 0.00 0.00
8:56 am 08:56 Cloudy with Mist and Fog 48 8.9 47 8.3 96 96 NNE 21 33 29.77 1008 5 8 0.00 0.00
9:56 am 09:56 Cloudy with Mist and Fog 48 8.9 47 8.3 96 96 NNE 21 33 29.78 1008 5 8 0.00 0.00
10:56 am 10:56 Cloudy 50 10 48 8.9 93 93 NNE 18 30 29.78 1009 8 13 0.00 0.00
12:06 pm 12:06 Cloudy 54 12 50 10 88 88 ENE 16 26 29.80 1009 10 16 0.00 0.00
12:56 pm 12:56 Cloudy 56 13.3 52 11.1 87 87 ENE 15 24 29.78 1009 10 16 0.00 0.00
1:56 pm 13:56 Cloudy 59 15 54 12.2 83 83 ENE 12 19 29.77 1008 10 16 0.00 0.00
2:52 pm 14:52 Cloudy 61 16 55 13 83 83 ENE 13 20 29.77 1008 10 16 0.00 0.00
2:56 pm 14:56 Cloudy 60 15.6 56 13.3 86 86 ENE 10 17 29.77 1008 10 16 0.00 0.00
3:56 pm 15:56 Cloudy 61 16.1 56 13.3 84 84 NE 10 17 29.78 1008 10 16 0.00 0.00
4:56 pm 16:56 Cloudy 61 16.1 57 13.9 87 87 NNE 15 24 29.76 1008 10 16 0.00 0.00
5:56 pm 17:56 Cloudy 62 16.7 58 14.4 86 86 NE 17 28 29.76 1008 10 16 0.00 0.00
6:22 pm 18:22 Cloudy 59 15 55 13 88 88 NNE 21 33 29.74 1007 7 11 0.00 0.00
6:34 pm 18:34 Cloudy with Mist and Fog 57 14 55 13 94 94 NE 18 30 29.77 1008 6 10 0.00 0.00
6:56 pm 18:56 Cloudy with Mist and Fog 58 14.4 55 12.8 90 90 NE 21 33 29.78 1009 6 10 0.00 0.00
7:56 pm 19:56 Cloudy with Mist and Fog 57 13.9 54 12.2 90 90 NE 16 26 29.80 1009 6 10 0.00 0.00
8:56 pm 20:56 Cloudy with Mist and Fog 57 13.9 54 12.2 90 90 NE 15 24 29.83 1010 5 8 0.00 0.00
9:56 pm 21:56 Cloudy with Mist and Fog 56 13.3 54 12.2 93 93 NE 16 26 29.85 1011 5 8 0.00 0.00
10:32 pm 22:32 Cloudy with Mist and Fog 55 13 54 12 94 94 NE 15 24 29.85 1011 3 4 0.00 0.00
10:56 pm 22:56 Cloudy with Light Rain 55 12.8 54 12.2 96 96 NE 16 26 29.86 1011 2 3 0.00 0.03
11:15 pm 23:15 Cloudy with Light Rain 55 13 54 12 94 94 NE 15 24 29.85 1011 2 3 0.00 0.00
11:56 pm 23:56 Cloudy with Mist and Fog 54 12.2 54 12.2 100 100 NE 15 24 29.88 1012 2 3 0.00 0.03

Powered by AerisWeather